TimeEDT,TemperatureF,Dew PointF,Humidity,Sea Level PressureIn,VisibilityMPH,Wind Direction,Wind SpeedMPH,Gust SpeedMPH,PrecipitationIn,Events,Conditions,WindDirDegrees,DateUTC
12:53 AM,55.9,53.1,90,30.06,9.0,Calm,Calm,-,N/A,,Clear,0,2012-11-03 04:53:00
1:53 AM,55.0,52.0,89,30.06,8.0,Calm,Calm,-,N/A,,Clear,0,2012-11-03 05:53:00
2:53 AM,52.0,50.0,93,30.06,6.0,Calm,Calm,-,N/A,,Clear,0,2012-11-03 06:53:00
3:53 AM,51.1,50.0,96,30.06,7.0,Calm,Calm,-,N/A,,Clear,0,2012-11-03 07:53:00
4:36 AM,51.8,48.2,88,30.06,7.0,Calm,Calm,-,N/A,,Scattered Clouds,0,2012-11-03 08:36:00
4:44 AM,50.0,48.2,94,30.06,8.0,Calm,Calm,-,N/A,,Mostly Cloudy,0,2012-11-03 08:44:00
4:50 AM,51.8,50.0,94,30.06,1.0,Calm,Calm,-,N/A,,Mist,0,2012-11-03 08:50:00
4:53 AM,51.1,50.0,96,30.06,0.5,Calm,Calm,-,N/A,Fog,Fog,0,2012-11-03 08:53:00
5:00 AM,51.8,50.0,94,30.06,0.2,Calm,Calm,-,N/A,Fog,Fog,0,2012-11-03 09:00:00
5:53 AM,51.1,51.1,100,30.07,0.2,Calm,Calm,-,N/A,Fog,Fog,0,2012-11-03 09:53:00
6:53 AM,52.0,51.1,97,30.10,0.2,Calm,Calm,-,N/A,Fog,Fog,0,2012-11-03 10:53:00
7:09 AM,51.8,50.0,94,30.10,0.5,Calm,Calm,-,N/A,Fog,Fog,0,2012-11-03 11:09:00
7:15 AM,51.8,50.0,94,30.10,0.2,Calm,Calm,-,N/A,Fog,Fog,0,2012-11-03 11:15:00
7:53 AM,51.1,51.1,100,30.12,0.5,Calm,Calm,-,N/A,Fog,Fog,0,2012-11-03 11:53:00
7:58 AM,50.0,50.0,100,30.12,0.2,SW,3.5,-,N/A,Fog,Fog,220,2012-11-03 11:58:00
8:26 AM,51.8,51.8,100,30.13,0.2,Calm,Calm,-,N/A,Fog,Fog,0,2012-11-03 12:26:00
8:53 AM,54.0,54.0,100,30.14,0.2,Calm,Calm,-,N/A,Fog,Fog,0,2012-11-03 12:53:00
9:53 AM,57.0,57.0,100,30.15,0.2,Calm,Calm,-,N/A,Fog,Fog,0,2012-11-03 13:53:00
10:30 AM,59.0,59.0,100,30.15,0.5,Calm,Calm,-,N/A,Fog,Fog,0,2012-11-03 14:30:00
10:53 AM,61.0,60.1,97,30.15,2.0,Calm,Calm,-,N/A,,Overcast,0,2012-11-03 14:53:00
11:05 AM,62.6,60.8,94,30.15,4.0,Calm,Calm,-,N/A,,Mostly Cloudy,0,2012-11-03 15:05:00
11:09 AM,62.6,60.8,94,30.15,4.0,Calm,Calm,-,N/A,,Clear,0,2012-11-03 15:09:00
11:20 AM,66.2,60.8,83,30.14,6.0,Calm,Calm,-,N/A,,Haze,0,2012-11-03 15:20:00
11:53 AM,71.1,61.0,70,30.13,8.0,Calm,Calm,-,N/A,,Clear,0,2012-11-03 15:53:00
12:53 PM,78.1,62.1,58,30.11,10.0,Calm,Calm,-,N/A,,Clear,0,2012-11-03 16:53:00
1:53 PM,81.0,61.0,50,30.08,10.0,Variable,4.6,-,N/A,,Clear,0,2012-11-03 17:53:00
2:53 PM,84.9,57.0,38,30.05,10.0,WNW,9.2,-,N/A,,Partly Cloudy,290,2012-11-03 18:53:00
3:53 PM,84.9,55.9,37,30.04,10.0,NNW,9.2,-,N/A,,Clear,330,2012-11-03 19:53:00
4:53 PM,84.9,55.0,36,30.03,10.0,WSW,9.2,-,N/A,,Partly Cloudy,240,2012-11-03 20:53:00
5:53 PM,82.9,55.9,39,30.03,10.0,West,4.6,-,N/A,,Partly Cloudy,280,2012-11-03 21:53:00
6:53 PM,73.0,59.0,61,30.04,10.0,Calm,Calm,-,N/A,,Clear,0,2012-11-03 22:53:00
7:53 PM,69.1,59.0,70,30.06,9.0,Calm,Calm,-,N/A,,Clear,0,2012-11-03 23:53:00
8:53 PM,66.0,59.0,78,30.06,10.0,Calm,Calm,-,N/A,,Partly Cloudy,0,2012-11-04 00:53:00
9:53 PM,63.0,57.9,84,30.06,10.0,Calm,Calm,-,N/A,,Clear,0,2012-11-04 01:53:00
10:53 PM,63.0,57.0,81,30.07,10.0,Calm,Calm,-,N/A,,Clear,0,2012-11-04 02:53:00
11:53 PM,60.1,55.9,86,30.08,10.0,SW,4.6,-,N/A,,Clear,220,2012-11-04 03:53:00